Flag for U.S.A. Weather past 2 weeks in Shreveport, Louisiana, U.S.A.

Now
75 °F

Passing clouds.


Feels Like: 75 °F
Forecast: 74 / 92 °F
Wind: No wind

Location: Shreveport Regional Airport

Current Time: Sep 4, 2015 at 3:32:12 AM

Latest Report: Sep 4, 2015 at 2:56 AM


Visibility: 10 mi

Pressure: 29.90 "Hg

Humidity: 85%

Dew point: 70 °F

Location of ShreveportLocation

Historic Weather in Shreveport — Graph

°F

Shreveport temperature yesterday

Maximum temperature yesterday: 95 °F (at 2:56 PM)
Minimum temperature yesterday: 71 °F (at 4:56 AM)
Average temperature yesterday: 82 °F

Past Weeks' High & Low Weather Summary

 TemperatureHumidityPressure
High96 °F (Aug 24, 2:56 PM)94% (Aug 20, 1:56 AM)30.15 "Hg (Aug 20, 1:56 AM)
Low63 °F (Aug 28, 6:56 AM)26% (Aug 28, 4:56 PM)29.85 "Hg (Sep 3, 7:56 PM)
Average80 °F68%30.00 "Hg
* Reported Aug 20 1:56 AM — Sep 4 1:56 AM, Shreveport, Weather by CustomWeather, © 2015

Note: Actual official high and low records may vary slightly from our data, if they occured in-between our weather recording intervals... More about our weather records

Advertising

Shreveport weather history for previous 24 hours

 ConditionsComfort  
Time TempWeatherWind HumidityBarometerVisibility
1:56 AM
Fri, Sep 4
76 °FPassing clouds.No wind82%29.90 "Hg10 mi
12:56 AM78 °FPassing clouds.No wind76%29.90 "Hg10 mi
11:56 PM
Thu, Sep 3
80 °FPassing clouds.5 mph69%29.90 "Hg10 mi
10:56 PM82 °FPassing clouds.No wind65%29.89 "Hg10 mi
9:56 PM80 °FPassing clouds.5 mph69%29.89 "Hg10 mi
8:56 PM83 °FPassing clouds.No wind63%29.87 "Hg10 mi
7:56 PM87 °FScattered clouds.No wind53%29.85 "Hg10 mi
6:56 PM92 °FScattered clouds.6 mph41%29.85 "Hg10 mi
5:56 PM91 °FScattered clouds.6 mph44%29.85 "Hg10 mi
4:56 PM92 °FScattered clouds.No wind43%29.87 "Hg10 mi
3:56 PM94 °FScattered clouds.3 mph41%29.88 "Hg10 mi
2:56 PM95 °FScattered clouds.7 mph41%29.90 "Hg10 mi
1:56 PM92 °FPartly sunny.7 mph46%29.93 "Hg10 mi
12:56 PM90 °FPartly sunny.5 mph48%29.96 "Hg10 mi
11:56 AM89 °FScattered clouds.8 mph52%29.97 "Hg10 mi
10:56 AM86 °FPassing clouds.No wind55%29.99 "Hg10 mi
9:56 AM82 °FPassing clouds.5 mph67%30.00 "Hg10 mi
8:56 AM78 °FSunny.No wind76%29.99 "Hg10 mi
7:56 AM73 °FSunny.No wind88%29.99 "Hg9 mi
6:56 AM71 °FClear.No wind87%29.98 "Hg10 mi
5:56 AM71 °FClear.No wind87%29.97 "Hg10 mi
4:56 AM71 °FClear.No wind87%29.96 "Hg10 mi
3:56 AM72 °FClear.3 mph84%29.96 "Hg10 mi
Weather by CustomWeather, © 2015

See weather overviewHow to use our weather pages